ATLAS 5 CENTAUR DEB, 45474

Orbit data source: Space-Track

ATLAS 5 CENTAUR DEB, 45474 is space debris in HEO originally from a launch on Wed, 17 Oct 2018 UTC launched from the Air Force Eastern Test Range (AFETR). Debris objects in space refer to the collection of defunct objects orbiting the Earth. Examples of debris include non-operational satellites, rocket bodies, and fragments generated from explosions, collisions, or faulty payload assembly.

Loading next visibility...
Identifier
45474, 2018-079BW
Orbit
HEO
Country
Flag of USUS
Related business
Flag of USUnited Launch Alliance/Lockheed Martin (US)
Manufacturer
ULA Decatur
Mission
Spacecraft
Bus & Motor
Unknown
Mass
Unknown
Launch date (UTC)
2018-10-17 (7 years ago)
Launch vehicle
Unknown
Launch site
Air Force Eastern Test Range (AFETR)
Object type
Payload
Rocket body
Debris
Shape & HBR
Unknown
Radar Cross Section
RCS unknown

Expand to show TLE details & history
Last TLE update: 4 days ago

TLE from 4 days ago
0 ATLAS 5 CENTAUR DEB
1 45474U 18079BW  25257.90566207 -.00000096  00000-0  00000-0 0  9991
2 45474  12.5882  82.8235 4497674 214.1324 106.5525  1.74206074 38194
Epoch: 2025-09-14T21:44Z
TLE epoch observation values (Epoch: 2025-09-14T21:44:09.202Z)
Latitude
-0.00002°
Longitude
122.72176°
Altitude
30,681.072 km
Speed
2.802 km/s
True Right ascension
05h 31m 30s
True Declination
0° 00' 00"
Sunlit
Object was in daylight at epoch
Visualization orbit readout
Latitude
Unknown
Longitude
Unknown
Altitude
Unknown
Speed
Unknown
Apparent Right ascension
Unknown
Apparent Declination
Unknown
Sunlit
N/A
Visualization observer readout
Local Sidereal Time
12:20:09
Azimuth
Unknown
Elevation
Unknown
Doppler factor
Unknown
Orbital elements
Apogee altitude
35,923.21 km
Perigee altitude
9,676.563 km
Semi-major axis
29,178.023 km
Eccentricity
0.44977
Inclination
12.5882°
RAAN
82.8235°
Arg. of periapsis
214.1324°
True anomaly
145.92422°
Mean anomaly
106.5525°
Eccentric anomaly
127.10476°
Mean motion
0.43547 °/min
Orbital period
826.69 mins
BSTAR
0
Loading maneuver chart data...
Computing Atmospheric mass density...

Documentation

Showing up to 5 results
|